,,,PA_Meas_PMT16A,,PR_Meas_QMR101_102,,RH_Meas_QMH101,,SR_Meas_QMS101,,TA_Meas_QMH101,,GenWind,,GenWind,
date,time,status,PA,status,PR,status,RH,status,SR,status,TA,status,DirAvg,status,SpdAvg,
2009-08-25, 00:00:04,VALID,1005.09,VALID,0,VALID,86.7022,VALID,0,VALID,25.8843,VALID,45,VALID,0.441406,
2009-08-25, 00:01:04,VALID,1005.1,VALID,0,VALID,86.5954,VALID,0.100563,VALID,25.9018,VALID,37,VALID,1.55039,
2009-08-25, 00:02:04,VALID,1005.08,VALID,0,VALID,86.3513,VALID,0.100563,VALID,25.9213,VALID,21,VALID,0.585156,
2009-08-25, 00:03:04,VALID,1005.08,VALID,0,VALID,86.3742,VALID,0,VALID,25.9038,VALID,2,VALID,0.678516,
2009-08-25, 00:04:04,VALID,1005.09,VALID,0,VALID,86.6565,VALID,0,VALID,25.8629,VALID,18,VALID,1.58203,
2009-08-25, 00:05:04,VALID,1005.11,VALID,0,VALID,86.3742,VALID,0,VALID,25.9622,VALID,21,VALID,0.955469,
2009-08-25, 00:06:04,VALID,1005.14,VALID,0,VALID,86.1987,VALID,0,VALID,25.9817,VALID,13,VALID,0.764453,
2009-08-25, 00:07:04,VALID,1005.13,VALID,0,VALID,86.3437,VALID,0,VALID,25.9213,VALID,30,VALID,0.335938,
2009-08-25, 00:08:04,VALID,1005.12,VALID,0,VALID,86.5344,VALID,0,VALID,25.9622,VALID,66,VALID,0.779297,
2009-08-25, 00:09:04,VALID,1005.11,VALID,0,VALID,86.3513,VALID,0,VALID,25.9602,VALID,6,VALID,0.872266,
2009-08-25, 00:10:04,VALID,1005.17,VALID,0,VALID,86.4276,VALID,0,VALID,25.9817,VALID,36,VALID,0.991016,
2009-08-25, 00:11:04,VALID,1005.18,VALID,0,VALID,86.4505,VALID,0,VALID,25.9817,VALID,9,VALID,1.1668,
2009-08-25, 00:12:04,VALID,1005.17,VALID,0,VALID,86.5039,VALID,0,VALID,25.9817,VALID,84,VALID,0.764063,
2009-08-25, 00:13:04,VALID,1005.17,VALID,0,VALID,86.4581,VALID,0,VALID,25.9602,VALID,348,VALID,0.628516,
2009-08-25, 00:14:04,VALID,1005.19,VALID,0,VALID,86.5954,VALID,0,VALID,25.9622,VALID,15,VALID,0.682422,
2009-08-25, 00:15:04,VALID,1005.19,VALID,0,VALID,86.5954,VALID,0,VALID,25.9622,VALID,41,VALID,0.957812,
2009-08-25, 00:16:04,VALID,1005.21,VALID,0,VALID,86.542,VALID,0,VALID,25.9797,VALID,27,VALID,0.596875,
2009-08-25, 00:17:04,VALID,1005.19,VALID,0,VALID,86.4657,VALID,0,VALID,25.9797,VALID,64,VALID,0.658594,
2009-08-25, 00:18:04,VALID,1005.19,VALID,0,VALID,86.4428,VALID,0,VALID,25.9992,VALID,13,VALID,1.66016,
2009-08-25, 00:19:04,VALID,1005.21,VALID,0,VALID,86.1377,VALID,0,VALID,26.118,VALID,27,VALID,1.38437,
2009-08-25, 00:20:04,VALID,1005.24,VALID,0,VALID,85.8859,VALID,0,VALID,26.1375,VALID,25,VALID,0.550781,
2009-08-25, 00:21:04,VALID,1005.24,VALID,0,VALID,85.9012,VALID,0,VALID,26.0966,VALID,25,VALID,0.442187,
2009-08-25, 00:22:04,VALID,1005.23,VALID,0,VALID,85.8936,VALID,0,VALID,26.118,VALID,12,VALID,0.447656,
2009-08-25, 00:23:04,VALID,1005.26,VALID,0,VALID,85.9622,VALID,0,VALID,26.0771,VALID,60,VALID,0.438281,
2009-08-25, 00:24:04,VALID,1005.23,VALID,0,VALID,86.069,VALID,0,VALID,26.0985,VALID,21,VALID,0.591016,
2009-08-25, 00:25:04,VALID,1005.23,VALID,0,VALID,86.0385,VALID,0,VALID,26.0985,VALID,79,VALID,0.470313,
2009-08-25, 00:26:04,VALID,1005.23,VALID,0,VALID,86.0843,VALID,0,VALID,26.0771,VALID,39,VALID,0.483594,
2009-08-25, 00:27:04,VALID,1005.24,VALID,0,VALID,86.1911,VALID,0,VALID,26.0381,VALID,57,VALID,0.405078,
2009-08-25, 00:28:04,VALID,1005.23,VALID,0,VALID,86.3437,VALID,0,VALID,26.0206,VALID,47,VALID,0.559375,
2009-08-25, 00:29:04,VALID,1005.21,VALID,0,VALID,86.5878,VALID,0,VALID,25.9797,VALID,24,VALID,0.666016,
2009-08-25, 00:30:04,VALID,1005.19,VALID,0,VALID,86.8243,VALID,0,VALID,25.9602,VALID,21,VALID,0.608984,
2009-08-25, 00:31:04,VALID,1005.18,VALID,0,VALID,86.8777,VALID,0,VALID,25.9408,VALID,21,VALID,0.670313,
2009-08-25, 00:32:04,VALID,1005.21,VALID,0,VALID,86.9235,VALID,0,VALID,25.9797,VALID,23,VALID,0.911328,
2009-08-25, 00:33:04,VALID,1005.16,VALID,0,VALID,86.7251,VALID,0,VALID,26.0012,VALID,24,VALID,0.742969,
2009-08-25, 00:34:04,VALID,1005.13,VALID,0,VALID,86.8548,VALID,0,VALID,25.9602,VALID,23,VALID,0.46875,
2009-08-25, 00:35:04,VALID,1005.1,VALID,0,VALID,86.8777,VALID,0,VALID,26.0012,VALID,21,VALID,0.846094,
2009-08-25, 00:36:04,VALID,1005.08,VALID,0,VALID,86.7633,VALID,0,VALID,26.0187,VALID,14,VALID,1.04023,
2009-08-25, 00:37:04,VALID,1005.07,VALID,0,VALID,86.5954,VALID,0,VALID,26.0401,VALID,6,VALID,0.549609,
2009-08-25, 00:38:04,VALID,1005.03,VALID,0,VALID,86.7251,VALID,0,VALID,26.0401,VALID,27,VALID,1.13984,
2009-08-25, 00:39:04,VALID,1005.05,VALID,0,VALID,86.542,VALID,0,VALID,26.0576,VALID,3,VALID,0.792578,
2009-08-25, 00:40:04,VALID,1005.02,VALID,0,VALID,86.5802,VALID,0,VALID,26.0791,VALID,22,VALID,0.660937,
2009-08-25, 00:41:04,VALID,1005.02,VALID,0,VALID,86.6259,VALID,0,VALID,26.0576,VALID,15,VALID,1.0168,
2009-08-25, 00:42:04,VALID,1005.07,VALID,0,VALID,86.5496,VALID,0,VALID,26.0985,VALID,23,VALID,0.824609,
2009-08-25, 00:43:04,VALID,1005.04,VALID,0,VALID,86.5191,VALID,0,VALID,26.0576,VALID,15,VALID,0.898047,
2009-08-25, 00:44:04,VALID,1005.07,VALID,0,VALID,86.6641,VALID,0,VALID,26.0381,VALID,30,VALID,1.30117,
2009-08-25, 00:45:04,VALID,1005.06,VALID,0,VALID,86.4962,VALID,0,VALID,26.0966,VALID,30,VALID,1.11875,
2009-08-25, 00:46:04,VALID,1005.05,VALID,0,VALID,86.3666,VALID,0,VALID,26.0576,VALID,13,VALID,0.661719,
2009-08-25, 00:47:04,VALID,1005.04,VALID,0,VALID,86.4886,VALID,0,VALID,26.0791,VALID,14,VALID,1.08555,
2009-08-25, 00:48:04,VALID,1005,VALID,0,VALID,86.4886,VALID,0,VALID,26.0576,VALID,24,VALID,1.30391,
2009-08-25, 00:49:04,VALID,1004.97,VALID,0,VALID,86.5954,VALID,0,VALID,25.9992,VALID,19,VALID,0.980469,
2009-08-25, 00:50:04,VALID,1004.94,VALID,0,VALID,86.687,VALID,0,VALID,25.9797,VALID,3,VALID,0.843359,
2009-08-25, 00:51:04,VALID,1004.92,VALID,0,VALID,86.8853,VALID,0,VALID,25.9408,VALID,8,VALID,0.994922,
2009-08-25, 00:52:04,VALID,1004.88,VALID,0,VALID,87.0989,VALID,0,VALID,25.8843,VALID,5,VALID,0.433203,
2009-08-25, 00:53:04,VALID,1004.89,VALID,0,VALID,87.2896,VALID,0,VALID,25.8239,VALID,5,VALID,0.423828,
2009-08-25, 00:54:04,VALID,1004.86,VALID,0,VALID,87.5795,VALID,0,VALID,25.746,VALID,5,VALID,0.582031,
2009-08-25, 00:55:04,VALID,1004.87,VALID,0,VALID,87.8618,VALID,0,VALID,25.6895,VALID,24,VALID,0.416797,
2009-08-25, 00:56:04,VALID,1004.86,VALID,0,VALID,88.5408,VALID,0,VALID,25.6895,VALID,8,VALID,1.14414,
2009-08-25, 00:57:04,VALID,1004.84,VALID,0,VALID,88.3501,VALID,0,VALID,25.7285,VALID,28,VALID,1.23828,
2009-08-25, 00:58:04,VALID,1004.83,VALID,0,VALID,88.3272,VALID,0.100563,VALID,25.7674,VALID,359,VALID,0.472266,
2009-08-25, 00:59:04,VALID,1004.82,VALID,0,VALID,88.0678,VALID,0,VALID,25.8259,VALID,22,VALID,0.989844,
2009-08-25, 01:00:04,VALID,1004.81,VALID,0,VALID,87.8466,VALID,0,VALID,25.8629,VALID,360,VALID,0.778125,
2009-08-25, 01:01:04,VALID,1004.78,VALID,0,VALID,87.6177,VALID,0.100563,VALID,25.9213,VALID,23,VALID,1.00391,
2009-08-25, 01:02:04,VALID,1004.75,VALID,0,VALID,87.4117,VALID,0,VALID,25.9408,VALID,357,VALID,0.564453,
2009-08-25, 01:03:04,VALID,1004.75,VALID,0,VALID,87.343,VALID,0,VALID,25.9213,VALID,356,VALID,0.335156,
2009-08-25, 01:04:04,VALID,1004.74,VALID,0,VALID,87.4499,VALID,0,VALID,25.9018,VALID,357,VALID,0.456641,
2009-08-25, 01:05:04,VALID,1004.73,VALID,0,VALID,87.6177,VALID,0,VALID,25.8843,VALID,49,VALID,0.518359,
2009-08-25, 01:06:04,VALID,1004.69,VALID,0,VALID,87.6558,VALID,0,VALID,25.8414,VALID,49,VALID,0.359375,
2009-08-25, 01:07:04,VALID,1004.67,VALID,0,VALID,87.7169,VALID,0,VALID,25.8434,VALID,46,VALID,0.265234,
2009-08-25, 01:08:04,VALID,1004.65,VALID,0,VALID,87.9076,VALID,0.100563,VALID,25.8629,VALID,20,VALID,0.751172,
2009-08-25, 01:09:04,VALID,1004.61,VALID,0,VALID,87.7474,VALID,0,VALID,25.9018,VALID,13,VALID,0.619141,
2009-08-25, 01:10:04,VALID,1004.59,VALID,0,VALID,87.6635,VALID,0,VALID,25.9038,VALID,15,VALID,0.59375,
2009-08-25, 01:11:04,VALID,1004.56,VALID,0,VALID,87.6787,VALID,0.100563,VALID,25.9018,VALID,360,VALID,0.894531,
2009-08-25, 01:12:04,VALID,1004.54,VALID,0,VALID,87.7169,VALID,0,VALID,25.9018,VALID,3,VALID,1.05703,
2009-08-25, 01:13:04,VALID,1004.55,VALID,0,VALID,87.755,VALID,0,VALID,25.9038,VALID,35,VALID,1.05938,
2009-08-25, 01:14:04,VALID,1004.51,VALID,0,VALID,87.694,VALID,0,VALID,25.9642,VALID,58,VALID,0.820703,
2009-08-25, 01:15:04,VALID,1004.47,VALID,0,VALID,87.5185,VALID,0,VALID,26.0226,VALID,33,VALID,1.43945,
2009-08-25, 01:16:04,VALID,1004.49,VALID,0,VALID,87.3965,VALID,0,VALID,26.0401,VALID,30,VALID,0.9125,
2009-08-25, 01:17:04,VALID,1004.46,VALID,0,VALID,87.282,VALID,0,VALID,26.0401,VALID,16,VALID,1.02656,
2009-08-25, 01:18:04,VALID,1004.45,VALID,0,VALID,87.1981,VALID,0,VALID,26.0206,VALID,1,VALID,0.916797,
2009-08-25, 01:19:04,VALID,1004.43,VALID,0,VALID,87.2362,VALID,0,VALID,26.0401,VALID,27,VALID,0.736328,
2009-08-25, 01:20:04,VALID,1004.47,VALID,0,VALID,87.3049,VALID,0,VALID,26.0401,VALID,31,VALID,0.841406,
2009-08-25, 01:21:04,VALID,1004.46,VALID,0,VALID,87.3354,VALID,0,VALID,26.0421,VALID,31,VALID,0.724609,
2009-08-25, 01:22:04,VALID,1004.47,VALID,0,VALID,87.3812,VALID,0,VALID,26.0421,VALID,64,VALID,0.559375,
2009-08-25, 01:23:04,VALID,1004.46,VALID,0,VALID,87.4422,VALID,0,VALID,25.9817,VALID,98,VALID,0.429297,
2009-08-25, 01:24:04,VALID,1004.51,VALID,0,VALID,87.5795,VALID,0,VALID,25.9817,VALID,90,VALID,0.812109,
2009-08-25, 01:25:04,VALID,1004.49,VALID,0,VALID,87.6406,VALID,0,VALID,26.0226,VALID,31,VALID,1.84961,
2009-08-25, 01:26:04,VALID,1004.5,VALID,0,VALID,87.4041,VALID,0,VALID,26.1005,VALID,81,VALID,1.01523,
2009-08-25, 01:27:04,VALID,1004.47,VALID,0,VALID,87.0913,VALID,0,VALID,26.1375,VALID,29,VALID,1.39648,
2009-08-25, 01:28:04,VALID,1004.49,VALID,0,VALID,86.8929,VALID,0,VALID,26.1765,VALID,72,VALID,0.794141,
2009-08-25, 01:29:04,VALID,1004.47,VALID,0,VALID,86.9082,VALID,0,VALID,26.1355,VALID,74,VALID,0.291016,
2009-08-25, 01:30:04,VALID,1004.47,VALID,0,VALID,86.9845,VALID,0,VALID,26.118,VALID,1,VALID,0.962891,
2009-08-25, 01:31:04,VALID,1004.46,VALID,0,VALID,87.1066,VALID,0,VALID,26.0985,VALID,49,VALID,0.45625,
2009-08-25, 01:32:04,VALID,1004.43,VALID,0,VALID,87.3125,VALID,0,VALID,26.0596,VALID,49,VALID,0.975,
2009-08-25, 01:33:04,VALID,1004.48,VALID,0,VALID,87.4193,VALID,0,VALID,26.0401,VALID,95,VALID,0.961328,
2009-08-25, 01:34:04,VALID,1004.48,VALID,0,VALID,87.4575,VALID,0,VALID,26.0206,VALID,68,VALID,0.428125,
2009-08-25, 01:35:04,VALID,1004.45,VALID,0,VALID,87.549,VALID,0,VALID,26.0012,VALID,117,VALID,0.982031,
2009-08-25, 01:36:04,VALID,1004.45,VALID,0,VALID,87.6711,VALID,0,VALID,25.9408,VALID,22,VALID,0.615625,
2009-08-25, 01:37:04,VALID,1004.46,VALID,0,VALID,87.8237,VALID,0,VALID,25.9232,VALID,1,VALID,0.782812,
2009-08-25, 01:38:04,VALID,1004.47,VALID,0,VALID,87.9,VALID,0,VALID,25.9018,VALID,52,VALID,0.725781,
2009-08-25, 01:39:04,VALID,1004.47,VALID,0,VALID,87.9,VALID,0,VALID,25.9038,VALID,7,VALID,0.619141,
2009-08-25, 01:40:04,VALID,1004.49,VALID,0,VALID,87.8923,VALID,0,VALID,25.8843,VALID,52,VALID,1.36406,
2009-08-25, 01:41:04,VALID,1004.44,VALID,0,VALID,87.8694,VALID,0,VALID,25.8843,VALID,31,VALID,0.503125,
2009-08-25, 01:42:04,VALID,1004.46,VALID,0,VALID,87.9076,VALID,0,VALID,25.8453,VALID,27,VALID,0.709766,
2009-08-25, 01:43:04,VALID,1004.46,VALID,0,VALID,87.9305,VALID,0,VALID,25.8843,VALID,65,VALID,1.53984,
2009-08-25, 01:44:04,VALID,1004.44,VALID,0,VALID,87.8618,VALID,0,VALID,25.8648,VALID,33,VALID,0.348828,
2009-08-25, 01:45:04,VALID,1004.49,VALID,0,VALID,87.9152,VALID,0,VALID,25.8434,VALID,69,VALID,0.837891,
2009-08-25, 01:46:04,VALID,1004.44,VALID,0,VALID,87.8542,VALID,0,VALID,25.8843,VALID,82,VALID,0.696094,
2009-08-25, 01:47:04,VALID,1004.48,VALID,0,VALID,87.8389,VALID,0,VALID,25.8843,VALID,53,VALID,0.668359,
2009-08-25, 01:48:04,VALID,1004.45,VALID,0,VALID,87.7703,VALID,0,VALID,25.8823,VALID,54,VALID,0.976563,
2009-08-25, 01:49:04,VALID,1004.47,VALID,0,VALID,87.7703,VALID,0,VALID,25.9038,VALID,50,VALID,1.42969,
2009-08-25, 01:50:04,VALID,1004.43,VALID,0,VALID,87.7169,VALID,0,VALID,25.9038,VALID,17,VALID,1.05469,
2009-08-25, 01:51:04,VALID,1004.44,VALID,0,VALID,87.7779,VALID,0,VALID,25.8648,VALID,39,VALID,0.532422,
2009-08-25, 01:52:04,VALID,1004.39,VALID,0,VALID,87.9305,VALID,0,VALID,25.8239,VALID,117,VALID,1.03203,
2009-08-25, 01:53:04,VALID,1004.39,VALID,0,VALID,87.9915,VALID,0,VALID,25.8044,VALID,38,VALID,0.587891,
2009-08-25, 01:54:04,VALID,1004.34,VALID,0,VALID,88.0831,VALID,0.100563,VALID,25.8044,VALID,71,VALID,1.10859,
2009-08-25, 01:55:04,VALID,1004.33,VALID,0,VALID,88.1365,VALID,0,VALID,25.8044,VALID,16,VALID,0.984375,
2009-08-25, 01:56:04,VALID,1004.33,VALID,0,VALID,88.0831,VALID,0,VALID,25.8064,VALID,4,VALID,0.328516,
2009-08-25, 01:57:04,VALID,1004.32,VALID,0,VALID,88.0907,VALID,0,VALID,25.746,VALID,2,VALID,0,
2009-08-25, 01:58:04,VALID,1004.32,VALID,0,VALID,88.2661,VALID,0,VALID,25.7071,VALID,14,VALID,0.725,
2009-08-25, 01:59:04,VALID,1004.29,VALID,0,VALID,88.4187,VALID,0,VALID,25.7071,VALID,27,VALID,0.986719,
2009-08-25, 02:00:04,VALID,1004.27,VALID,0,VALID,88.5103,VALID,0,VALID,25.6856,VALID,79,VALID,1.08086,
2009-08-25, 02:01:04,VALID,1004.24,VALID,0,VALID,88.434,VALID,0,VALID,25.7071,VALID,68,VALID,0.375391,
2009-08-25, 02:02:04,VALID,1004.22,VALID,0,VALID,88.3806,VALID,0,VALID,25.6681,VALID,54,VALID,0.582031,
2009-08-25, 02:03:04,VALID,1004.21,VALID,0,VALID,88.6476,VALID,0,VALID,25.6486,VALID,92,VALID,0.715625,
2009-08-25, 02:04:04,VALID,1004.19,VALID,0,VALID,88.7162,VALID,0,VALID,25.6097,VALID,56,VALID,0.323828,
2009-08-25, 02:05:04,VALID,1004.17,VALID,0,VALID,88.7697,VALID,0,VALID,25.5902,VALID,56,VALID,0.2875,
2009-08-25, 02:06:04,VALID,1004.2,VALID,0,VALID,88.7925,VALID,0,VALID,25.5707,VALID,56,VALID,0.166406,
2009-08-25, 02:07:04,VALID,1004.16,VALID,0,VALID,88.9604,VALID,0,VALID,25.5513,VALID,50,VALID,0.328125,
2009-08-25, 02:08:04,VALID,1004.13,VALID,0,VALID,89.0443,VALID,0,VALID,25.5318,VALID,50,VALID,0.405078,
2009-08-25, 02:09:04,VALID,1004.11,VALID,0,VALID,89.1053,VALID,0,VALID,25.5123,VALID,38,VALID,0.319922,
2009-08-25, 02:10:04,VALID,1004.1,VALID,0,VALID,89.2121,VALID,0,VALID,25.4928,VALID,36,VALID,0.336328,
2009-08-25, 02:11:04,VALID,1004.09,VALID,0,VALID,89.2732,VALID,0,VALID,25.4948,VALID,21,VALID,0.914453,
2009-08-25, 02:12:04,VALID,1004.08,VALID,0,VALID,89.441,VALID,0,VALID,25.4753,VALID,61,VALID,0.489453,
2009-08-25, 02:13:04,VALID,1004.03,VALID,0,VALID,89.441,VALID,0,VALID,25.4734,VALID,33,VALID,0.834766,
2009-08-25, 02:14:04,VALID,1004.04,VALID,0,VALID,89.3876,VALID,0,VALID,25.4753,VALID,16,VALID,0.409766,
2009-08-25, 02:15:04,VALID,1004.02,VALID,0,VALID,89.38,VALID,0,VALID,25.4363,VALID,95,VALID,0.471094,
2009-08-25, 02:16:04,VALID,1003.99,VALID,0,VALID,89.5173,VALID,0.100563,VALID,25.3955,VALID,84,VALID,0.458203,
2009-08-25, 02:17:04,VALID,1004.01,VALID,0,VALID,89.6317,VALID,0,VALID,25.376,VALID,52,VALID,0.683594,
2009-08-25, 02:18:04,VALID,1003.97,VALID,0,VALID,89.6165,VALID,0,VALID,25.4344,VALID,46,VALID,1.57305,
2009-08-25, 02:19:04,VALID,1003.94,VALID,0,VALID,89.2274,VALID,0,VALID,25.5123,VALID,36,VALID,1.00312,
2009-08-25, 02:20:04,VALID,1003.94,VALID,0,VALID,88.8307,VALID,0.100563,VALID,25.5493,VALID,64,VALID,0.898828,
2009-08-25, 02:21:04,VALID,1003.98,VALID,0,VALID,88.4492,VALID,0,VALID,25.6486,VALID,54,VALID,1.39297,
2009-08-25, 02:22:04,VALID,1003.96,VALID,0,VALID,88.0602,VALID,0,VALID,25.6876,VALID,27,VALID,0.677344,
2009-08-25, 02:23:04,VALID,1003.96,VALID,0,VALID,87.8389,VALID,0,VALID,25.7285,VALID,48,VALID,0.195313,
2009-08-25, 02:24:04,VALID,1003.96,VALID,0,VALID,87.7855,VALID,0.100563,VALID,25.7071,VALID,8,VALID,0.462891,
2009-08-25, 02:25:04,VALID,1003.93,VALID,0,VALID,87.755,VALID,0,VALID,25.709,VALID,9,VALID,0.216016,
2009-08-25, 02:26:04,VALID,1003.95,VALID,0,VALID,87.8313,VALID,0,VALID,25.6681,VALID,9,VALID,0,
2009-08-25, 02:27:04,VALID,1003.99,VALID,0,VALID,87.9076,VALID,0,VALID,25.6486,VALID,9,VALID,0.23125,
2009-08-25, 02:28:04,VALID,1004.01,VALID,0,VALID,87.9839,VALID,0.100563,VALID,25.6506,VALID,14,VALID,0.473437,
2009-08-25, 02:29:04,VALID,1004.03,VALID,0,VALID,88.0678,VALID,0,VALID,25.6097,VALID,40,VALID,0.104297,
2009-08-25, 02:30:04,VALID,1004.04,VALID,0,VALID,88.1212,VALID,0,VALID,25.6116,VALID,37,VALID,0.160156,
2009-08-25, 02:31:04,VALID,1004.07,VALID,0,VALID,88.2127,VALID,0,VALID,25.5921,VALID,68,VALID,0.460156,
2009-08-25, 02:32:04,VALID,1004.09,VALID,0,VALID,88.1365,VALID,0,VALID,25.6311,VALID,33,VALID,0.691406,
2009-08-25, 02:33:04,VALID,1004.11,VALID,0,VALID,88.022,VALID,0,VALID,25.6097,VALID,94,VALID,0.586328,
2009-08-25, 02:34:04,VALID,1004.13,VALID,0,VALID,88.0144,VALID,0,VALID,25.6097,VALID,114,VALID,0.81875,
2009-08-25, 02:35:04,VALID,1004.12,VALID,0,VALID,87.9534,VALID,0.100563,VALID,25.6292,VALID,82,VALID,0.565625,
2009-08-25, 02:36:04,VALID,1004.15,VALID,0,VALID,87.9228,VALID,0.100563,VALID,25.6292,VALID,108,VALID,0.601953,
2009-08-25, 02:37:04,VALID,1004.12,VALID,0,VALID,87.8847,VALID,0,VALID,25.6895,VALID,104,VALID,0.634375,
2009-08-25, 02:38:04,VALID,1004.1,VALID,0,VALID,87.7016,VALID,0,VALID,25.7285,VALID,103,VALID,0.371875,
2009-08-25, 02:39:04,VALID,1004.09,VALID,0,VALID,87.6329,VALID,0,VALID,25.7265,VALID,91,VALID,0.910547,
2009-08-25, 02:40:04,VALID,1004.09,VALID,0,VALID,87.4499,VALID,0.100563,VALID,25.7655,VALID,105,VALID,0.508203,
2009-08-25, 02:41:04,VALID,1004.07,VALID,0,VALID,87.2515,VALID,0,VALID,25.7869,VALID,61,VALID,0.612109,
2009-08-25, 02:42:04,VALID,1004.08,VALID,0,VALID,87.1294,VALID,0,VALID,25.785,VALID,85,VALID,0.65,
2009-08-25, 02:43:04,VALID,1004.07,VALID,0,VALID,86.9387,VALID,0.100563,VALID,25.8259,VALID,70,VALID,0.569531,
2009-08-25, 02:44:04,VALID,1004.05,VALID,0,VALID,86.9082,VALID,0,VALID,25.8044,VALID,29,VALID,0.619922,
2009-08-25, 02:45:04,VALID,1004.08,VALID,0,VALID,86.9006,VALID,0,VALID,25.8064,VALID,95,VALID,0.422656,
2009-08-25, 02:46:04,VALID,1004.07,VALID,0,VALID,86.9464,VALID,0,VALID,25.785,VALID,39,VALID,0.195313,
2009-08-25, 02:47:04,VALID,1004.11,VALID,0,VALID,87.0455,VALID,0,VALID,25.7655,VALID,40,VALID,0.305859,
2009-08-25, 02:48:04,VALID,1004.08,VALID,0,VALID,87.1905,VALID,0,VALID,25.7674,VALID,44,VALID,0.634375,
2009-08-25, 02:49:04,VALID,1004.07,VALID,0,VALID,87.2362,VALID,0,VALID,25.7285,VALID,48,VALID,0.674609,
2009-08-25, 02:50:04,VALID,1004.06,VALID,0,VALID,87.2515,VALID,0,VALID,25.7071,VALID,77,VALID,0.420312,
2009-08-25, 02:51:04,VALID,1004.06,VALID,0,VALID,87.3125,VALID,0,VALID,25.7071,VALID,59,VALID,0.4125,
2009-08-25, 02:52:04,VALID,1004.08,VALID,0,VALID,87.343,VALID,0.100563,VALID,25.6876,VALID,53,VALID,0.241016,
2009-08-25, 02:53:04,VALID,1004.04,VALID,0,VALID,87.4117,VALID,0,VALID,25.7071,VALID,26,VALID,0.408594,
2009-08-25, 02:54:04,VALID,1004.07,VALID,0,VALID,87.3736,VALID,0.100563,VALID,25.6876,VALID,18,VALID,0.412109,
2009-08-25, 02:55:04,VALID,1004.09,VALID,0,VALID,87.488,VALID,0.100563,VALID,25.6681,VALID,51,VALID,0.461328,
2009-08-25, 02:56:04,VALID,1004.07,VALID,0,VALID,87.5567,VALID,0.100563,VALID,25.6467,VALID,89,VALID,0.879687,
2009-08-25, 02:57:04,VALID,1004.09,VALID,0,VALID,87.488,VALID,0,VALID,25.6681,VALID,51,VALID,0.434375,
2009-08-25, 02:58:04,VALID,1004.09,VALID,0,VALID,87.4956,VALID,0,VALID,25.6486,VALID,32,VALID,0.285937,
2009-08-25, 02:59:04,VALID,1004.08,VALID,0,VALID,87.6024,VALID,0.100563,VALID,25.5902,VALID,32,VALID,0,
2009-08-25, 03:00:04,VALID,1004.09,VALID,0,VALID,87.816,VALID,0.100563,VALID,25.5513,VALID,32,VALID,0,
2009-08-25, 03:01:04,VALID,1004.08,VALID,0,VALID,88.0678,VALID,0,VALID,25.4928,VALID,31,VALID,0.428125,
2009-08-25, 03:02:04,VALID,1004.1,VALID,0,VALID,88.0983,VALID,0,VALID,25.4539,VALID,31,VALID,0.336719,
2009-08-25, 03:03:04,VALID,1004.06,VALID,0,VALID,88.3348,VALID,0,VALID,25.376,VALID,30,VALID,0.378125,
2009-08-25, 03:04:04,VALID,1004.05,VALID,0,VALID,88.6323,VALID,0.100563,VALID,25.3565,VALID,27,VALID,0.522266,
2009-08-25, 03:05:04,VALID,1004.05,VALID,0,VALID,88.8307,VALID,0,VALID,25.3779,VALID,29,VALID,0.476172,
2009-08-25, 03:06:04,VALID,1004.03,VALID,0,VALID,88.8612,VALID,0,VALID,25.3565,VALID,38,VALID,0.28125,
2009-08-25, 03:07:04,VALID,1003.97,VALID,0,VALID,88.7697,VALID,0,VALID,25.3955,VALID,19,VALID,1.51563,
2009-08-25, 03:08:04,VALID,1003.98,VALID,0,VALID,88.3958,VALID,0,VALID,25.4753,VALID,39,VALID,0.257422,
2009-08-25, 03:09:04,VALID,1003.98,VALID,0,VALID,88.289,VALID,0,VALID,25.4344,VALID,39,VALID,0.309766,
2009-08-25, 03:10:04,VALID,1003.97,VALID,0,VALID,88.3119,VALID,0.100563,VALID,25.4149,VALID,39,VALID,0.0523437,
2009-08-25, 03:11:04,VALID,1003.95,VALID,0,VALID,88.5637,VALID,0,VALID,25.4169,VALID,7,VALID,0.770703,
2009-08-25, 03:12:04,VALID,1003.98,VALID,0,VALID,88.3348,VALID,0.100563,VALID,25.4149,VALID,32,VALID,0.723828,
2009-08-25, 03:13:04,VALID,1003.97,VALID,0,VALID,88.434,VALID,0,VALID,25.3779,VALID,20,VALID,0.664844,
2009-08-25, 03:14:04,VALID,1003.99,VALID,0,VALID,88.7086,VALID,0,VALID,25.3584,VALID,23,VALID,0.606641,
2009-08-25, 03:15:04,VALID,1004.01,VALID,0,VALID,88.7925,VALID,0,VALID,25.3604,VALID,18,VALID,0.913281,
2009-08-25, 03:16:04,VALID,1004.02,VALID,0,VALID,88.7544,VALID,0,VALID,25.3779,VALID,42,VALID,0.933594,
2009-08-25, 03:17:04,VALID,1004.03,VALID,0,VALID,88.6171,VALID,0,VALID,25.3779,VALID,51,VALID,0.0121094,
2009-08-25, 03:18:04,VALID,1004.07,VALID,0,VALID,88.701,VALID,0,VALID,25.3584,VALID,91,VALID,0.725781,
2009-08-25, 03:19:04,VALID,1004.08,VALID,0,VALID,88.7468,VALID,0,VALID,25.3993,VALID,71,VALID,1.03789,
2009-08-25, 03:20:04,VALID,1004.07,VALID,0,VALID,88.6857,VALID,0,VALID,25.4169,VALID,38,VALID,0.592578,
2009-08-25, 03:21:04,VALID,1004.1,VALID,0,VALID,88.4721,VALID,0,VALID,25.4772,VALID,59,VALID,0.537891,
2009-08-25, 03:22:04,VALID,1004.09,VALID,0,VALID,88.3043,VALID,0,VALID,25.5142,VALID,49,VALID,0.805859,
2009-08-25, 03:23:04,VALID,1004.09,VALID,0,VALID,88.0144,VALID,0,VALID,25.5727,VALID,42,VALID,0.463672,
2009-08-25, 03:24:04,VALID,1004.16,VALID,0,VALID,87.7932,VALID,0,VALID,25.6136,VALID,20,VALID,0.426172,
2009-08-25, 03:25:04,VALID,1004.13,VALID,0,VALID,87.5185,VALID,0,VALID,25.67,VALID,103,VALID,0.913281,
2009-08-25, 03:26:04,VALID,1004.14,VALID,0,VALID,87.2591,VALID,0,VALID,25.7109,VALID,90,VALID,0.555859,
2009-08-25, 03:27:04,VALID,1004.14,VALID,0,VALID,87.1905,VALID,0,VALID,25.709,VALID,90,VALID,0.404297,
2009-08-25, 03:28:04,VALID,1004.16,VALID,0,VALID,87.1218,VALID,0,VALID,25.6876,VALID,85,VALID,0.0410156,
2009-08-25, 03:29:04,VALID,1004.18,VALID,0,VALID,87.1523,VALID,0.100563,VALID,25.7285,VALID,83,VALID,0.406641,
2009-08-25, 03:30:04,VALID,1004.2,VALID,0,VALID,87.0989,VALID,0,VALID,25.7071,VALID,83,VALID,0.188281,
2009-08-25, 03:31:04,VALID,1004.24,VALID,0,VALID,87.0989,VALID,0.100563,VALID,25.7071,VALID,351,VALID,0.244531,
2009-08-25, 03:32:04,VALID,1004.26,VALID,0,VALID,87.0913,VALID,0.100563,VALID,25.7071,VALID,52,VALID,0.629687,
2009-08-25, 03:33:04,VALID,1004.29,VALID,0,VALID,87.076,VALID,0.100563,VALID,25.6856,VALID,80,VALID,0.830859,
2009-08-25, 03:34:04,VALID,1004.33,VALID,0,VALID,87.0608,VALID,0,VALID,25.6681,VALID,20,VALID,0.124609,
2009-08-25, 03:35:04,VALID,1004.33,VALID,0,VALID,87.427,VALID,0,VALID,25.6311,VALID,14,VALID,0.720312,
2009-08-25, 03:36:04,VALID,1004.39,VALID,0,VALID,87.4651,VALID,0.100563,VALID,25.6097,VALID,32,VALID,0.100781,
2009-08-25, 03:37:04,VALID,1004.41,VALID,0,VALID,87.4651,VALID,0,VALID,25.5707,VALID,33,VALID,0.220703,
2009-08-25, 03:38:04,VALID,1004.44,VALID,0,VALID,87.6558,VALID,0,VALID,25.5318,VALID,34,VALID,0.0269531,
2009-08-25, 03:39:04,VALID,1004.42,VALID,0,VALID,87.961,VALID,0.100563,VALID,25.4714,VALID,22,VALID,0.446875,
2009-08-25, 03:40:04,VALID,1004.44,VALID,0,VALID,88.1059,VALID,0.100563,VALID,25.5142,VALID,51,VALID,0.56875,
2009-08-25, 03:41:04,VALID,1004.43,VALID,0,VALID,87.9839,VALID,0.100563,VALID,25.4928,VALID,27,VALID,0.424219,
2009-08-25, 03:42:04,VALID,1004.41,VALID,0,VALID,88.022,VALID,0.100563,VALID,25.4539,VALID,27,VALID,0.161328,
2009-08-25, 03:43:04,VALID,1004.44,VALID,0,VALID,88.1136,VALID,0,VALID,25.4344,VALID,23,VALID,0.382813,
2009-08-25, 03:44:04,VALID,1004.41,VALID,0,VALID,88.289,VALID,0,VALID,25.376,VALID,21,VALID,0.285156,